This is the latest recevied weather packets stored in our database for station/object W4MLN-3. If no packets are shown the sender has not sent any weather packets the latest 10 day(s).
| Time | Temp. | Humidity | Pressure | Rain* | Wind** | Luminosity | Snow |
|---|---|---|---|---|---|---|---|
| 1777845004 | 14.44° C | 27% | 1015.3 hPa | 0 mm | - | - | - |
| 1777844703 | 14.44° C | 27% | 1015.3 hPa | 0 mm | - | - | - |
| 1777844403 | 14.44° C | 26% | 1015.3 hPa | 0 mm | - | - | - |
| 1777844103 | 14.44° C | 27% | 1015.4 hPa | 0 mm | - | - | - |
| 1777843803 | 14.44° C | 28% | 1015.5 hPa | 0 mm | - | - | - |
| 1777843503 | 14.44° C | 27% | 1015.4 hPa | 0 mm | - | - | - |
| 1777843203 | 14.44° C | 28% | 1015.5 hPa | 0 mm | - | - | - |
| 1777842903 | 14.44° C | 28% | 1015.6 hPa | 0 mm | - | - | - |
| 1777842603 | 14.44° C | 27% | 1015.7 hPa | 0 mm | - | - | - |
| 1777842324 | 14.44° C | 28% | 1015.7 hPa | 0 mm | - | - | - |
| 1777842004 | 14.44° C | 27% | 1015.8 hPa | 0 mm | - | - | - |
| 1777841703 | 14.44° C | 27% | 1015.7 hPa | 0 mm | - | - | - |
| 1777841403 | 14.44° C | 26% | 1015.8 hPa | 0 mm | - | - | - |
| 1777841103 | 14.44° C | 27% | 1015.9 hPa | 0 mm | - | - | - |
| 1777840804 | 14.44° C | 26% | 1016 hPa | 0 mm | - | - | - |
| 1777840503 | 14.44° C | 25% | 1016 hPa | 0 mm | - | - | - |
| 1777839903 | 15° C | 28% | 1016 hPa | 0 mm | - | - | - |
| 1777839603 | 15° C | 31% | 1015.9 hPa | 0 mm | - | - | - |
| 1777839303 | 15° C | 33% | 1016 hPa | 0 mm | - | - | - |
| 1777839003 | 15° C | 33% | 1016.1 hPa | 0 mm | - | - | - |
| 1777838703 | 14.44° C | 34% | 1016 hPa | 0 mm | - | - | - |
| 1777838403 | 14.44° C | 31% | 1016.1 hPa | 0 mm | - | - | - |
| 1777838103 | 15° C | 32% | 1016.1 hPa | 0 mm | - | - | - |
| 1777837803 | 15° C | 32% | 1016.3 hPa | 0 mm | - | - | - |
| 1777837503 | 15° C | 32% | 1016.2 hPa | 0 mm | - | - | - |
* Rain latest hour (hover to see other rain measurements)
** Current wind speed in m/s (hover to see current wind gust speed)